Location: Burzi?i
(45.0869°N, 16.0577°E)
Time: 11:44:31
(UTC+00:00)

USA 308 - Pass Details

Date: 29 October 2020
Orbit: 571 x 578 km, 54.0° (Epoch: 23 November)

Event Time Altitude Azimuth Distance (km) Brightness Sun altitude
Rises 17:06:30 0° 305° (NW) 2,787 7.3 -14.4°
Reaches altitude 10° 17:08:48 10° 308° (NW) 1,885 6.2 -14.8°
Maximum altitude 17:13:03 63° 30° (NNE) 644 2.9 -15.6°
Enters shadow 17:15:05 29° 103° (ESE) 1,064 3.7 -15.9°
